Погода в Кевроле

Россия / Архангельская область     63°57′16″N   44°30′47″E
темп.,
°C
ветер,
м/с
пор.,
м/с
влажн.,
%
обл.,
%
осадки,
мм/ч
давл.,
гПа
погр.,
м
19 апреля, пн
пн1900:00−2юв22685 0.0 103835
03:00−2ююв12666 0.0 103840
06:00−1ююз136317 0.0 1037121
09:00+4юз234499 0.0 1037757
12:00+6юз233616 0.0 10361234
15:00+7юз23352 0.0 10351332
18:00+6зюз22515 0.0 103437
21:00+1юз22695 0.0 103417
20 апреля, вт
вт2000:000юз227224 0.0 103428
03:00−1юз23695 0.0 103455
06:00+1юз25634 0.0 1033155
09:00+6юз34440 0.0 1033582
12:00+9юз34364 0.0 10321186
15:00+10юз34330 0.0 10301365
18:00+9ююз24461 0.0 1029134
21:00+4ю22635 0.0 102915
21 апреля, ср
ср2100:00+2ююв23710 0.0 102844
03:00+1юв2575100 0.0 102782
06:00+2юв387093 0.0 1026236
09:00+7ююв4850100 0.0 1024697
12:00+10юв583791 0.0 10211148
15:00+12юв51135100 0.0 10181451
18:00+10юв61342100 0.0 10151464
21:00+7ююв61564100 0.1 10131430
22 апреля, чт
чт2200:00+5юв61380100 0.5 10101168
03:00+4ююв61489100 0.5 10091152
06:00+4ююв61488100 0.0 10081280
09:00+5ю7147986 0.2 10081385
12:00+7ю71268100 0.2 10081468
15:00+8ююз6135938 0.4 10091683
18:00+7ююз4117773 0.4 10091290
21:00+5ю41087100 0.8 10091122
23 апреля, пт
пт2300:00+5юз5887100 0.9 10091013
03:00+3юз598491 1.1 1011881
06:00+3юз4991100 0.1 10131049
09:00+5юз5980100 0.1 1015722
12:00+9юз465374 0.0 10171555
15:00+9ю455364 0.0 10181412
18:00+9юв35594 0.0 1019709
21:00+5вюв3107676 0.0 1019222